KD5NVR Weather Reports


Display with metric or nautical units.
time (UTC)temp
F
wind
direction
speed
MPH
gust
MPH
rain 1hr
in
rain 24hr
in
rain mn
in
humidity
%
barometer
mb
20260506232018 69 353 6.0 10.0 0.00 0.11 0.00 77 1011.3
20260506231018 69 352 8.0 14.0 0.00 0.11 0.00 76 1011.0
20260506230018 71 14 8.0 14.0 0.00 0.11 0.00 74 1010.9
20260506225039 71 6 10.0 14.0 0.00 0.11 0.00 74 1010.8
20260506224019 72 16 10.0 13.0 0.00 0.11 0.00 73 1010.6
20260506223019 73 14 10.0 13.0 0.00 0.11 0.00 72 1010.6
20260506222016 73 17 10.0 18.0 0.00 0.11 0.00 71 1010.6
20260506221017 74 16 10.0 16.0 0.00 0.11 0.00 71 1010.4
20260506220036 75 14 9.0 20.0 0.00 0.11 0.00 70 1010.6
20260506215016 75 8 12.0 21.0 0.00 0.11 0.00 72 1010.2
20260506214017 78 4 8.0 14.0 0.00 0.11 0.00 70 1010.0
20260506213017 81 351 8.0 14.0 0.00 0.11 0.00 67 1009.9
20260506212017 82 8 8.0 14.0 0.00 0.11 0.00 70 1010.0
20260506211017 82 6 7.0 13.0 0.00 0.11 0.00 70 1010.3
20260506210018 81 14 6.0 11.0 0.00 0.11 0.00 72 1010.3
20260506205018 80 356 5.0 9.0 0.00 0.11 0.00 74 1010.4
20260506204037 81 340 5.0 9.0 0.00 0.11 0.00 72 1010.4
20260506203018 81 3 8.0 12.0 0.00 0.11 0.00 71 1010.4
20260506202018 81 341 5.0 11.0 0.00 0.11 0.00 71 1010.6
20260506201018 80 7 7.0 12.0 0.00 0.11 0.00 72 1010.7
20260506200019 79 353 6.0 13.0 0.00 0.11 0.00 74 1010.7
20260506195019 79 358 6.0 10.0 0.00 0.11 0.00 76 1010.9
20260506194016 79 338 7.0 14.0 0.00 0.11 0.00 77 1011.0
20260506193016 78 324 6.0 10.0 0.00 0.11 0.00 80 1011.1
20260506192016 78 284 5.0 10.0 0.00 0.11 0.00 79 1011.3
20260506191137 79 285 4.0 7.0 0.00 0.11 0.00 78 1011.2
20260506190037 78 303 3.0 6.0 0.00 0.11 0.00 78 1011.1
20260506185016 77 334 3.0 5.0 0.00 0.11 0.00 82 1011.2
20260506184017 76 328 3.0 7.0 0.00 0.11 0.00 84 1011.4
20260506183017 74 313 3.0 5.0 0.00 0.11 0.00 87 1011.6
20260506182017 73 287 2.0 5.0 0.00 0.11 0.00 89 1011.6
20260506181017 73 318 3.0 6.0 0.00 0.11 0.00 90 1011.7
20260506180017 73 350 4.0 9.0 0.00 0.11 0.00 90 1011.8
20260506175037 73 345 6.0 9.0 0.00 0.11 0.00 91 1011.8
20260506174018 72 4 5.0 8.0 0.00 0.11 0.00 92 1011.8
20260506173018 71 1 6.0 8.0 0.00 0.11 0.00 92 1011.7
20260506172018 72 9 6.0 10.0 0.00 0.11 0.00 92 1011.7
20260506171039 74 4 8.0 11.0 0.00 0.11 0.00 90 1011.7
20260506170018 76 326 4.0 8.0 0.00 0.11 0.00 90 1011.8
20260506165042 75 334 3.0 5.0 0.00 0.11 0.00 90 1011.7
20260506164018 75 350 3.0 5.0 0.00 0.11 0.00 90 1011.6
20260506163022 75 321 1.0 2.0 0.00 0.11 0.00 91 1011.5
20260506162042 75 345 3.0 4.0 0.00 0.11 0.00 90 1011.5
20260506161022 75 360 2.0 3.0 0.00 0.11 0.00 91 1011.4
20260506160022 75 3 1.0 2.0 0.00 0.11 0.00 93 1011.4
20260506155022 74 355 1.0 2.0 0.00 0.11 0.00 94 1011.3
20260506154023 74 149 1.0 3.0 0.00 0.11 0.00 95 1011.1
20260506153042 73 165 2.0 4.0 0.00 0.11 0.00 95 1011.0
20260506152023 73 207 1.0 3.0 0.00 0.11 0.00 95 1011.0
20260506151023 73 209 2.0 3.0 0.00 0.11 0.00 95 1011.0
20260506150020 73 218 4.0 6.0 0.00 0.11 0.00 94 1011.0
20260506145024 74 228 3.0 5.0 0.00 0.11 0.00 94 1010.9
20260506144021 74 213 4.0 5.0 0.00 0.11 0.00 92 1010.8
20260506143024 74 208 3.0 4.0 0.00 0.11 0.00 92 1010.8
20260506142043 74 181 0.0 1.0 0.00 0.11 0.00 92 1010.8
20260506141024 74 166 2.0 4.0 0.00 0.11 0.00 92 1010.5
20260506140021 74 168 4.0 8.0 0.00 0.11 0.00 92 1010.1
20260506135025 74 163 2.0 4.0 0.00 0.11 0.00 93 1009.9
20260506134025 74 171 1.0 3.0 0.00 0.11 0.00 93 1009.7
20260506133022 74 166 4.0 7.0 0.00 0.11 0.00 94 1009.4
20260506132016 74 155 4.0 6.0 0.00 0.11 0.00 94 1009.3
20260506131025 73 170 3.0 5.0 0.00 0.11 0.00 94 1009.2
20260506130126 73 163 2.0 4.0 0.00 0.11 0.00 94 1009.2
20260506125017 73 155 2.0 5.0 0.00 0.11 0.00 94 1009.0
20260506124017 73 179 2.0 4.0 0.00 0.11 0.00 94 1008.9
20260506123017 73 156 3.0 7.0 0.00 0.11 0.00 95 1008.7
20260506122018 73 160 2.0 5.0 0.00 0.11 0.00 95 1008.8
20260506121018 73 161 2.0 5.0 0.00 0.11 0.00 95 1008.8
20260506120038 73 177 2.0 4.0 0.00 0.11 0.00 95 1008.8
20260506115038 73 189 3.0 4.0 0.00 0.11 0.00 95 1008.8
20260506114019 73 170 1.0 4.0 0.00 0.11 0.00 95 1008.9
20260506113019 73 154 2.0 4.0 0.00 0.11 0.00 95 1008.8
20260506112016 73 174 1.0 4.0 0.00 0.11 0.00 96 1008.9
20260506111016 73 146 3.0 6.0 0.00 0.11 0.00 96 1008.9
20260506110015 73 154 3.0 5.0 0.00 0.11 0.00 96 1008.9
20260506105016 73 157 3.0 5.0 0.00 0.11 0.00 96 1009.0
20260506104017 73 152 3.0 6.0 0.00 0.11 0.00 96 1009.0
20260506103017 73 163 3.0 6.0 0.00 0.11 0.00 96 1009.0
20260506102017 73 170 5.0 9.0 0.00 0.11 0.00 96 1009.0
20260506101037 73 162 5.0 9.0 0.00 0.11 0.00 96 1008.9
20260506100017 73 166 5.0 11.0 0.00 0.11 0.00 95 1008.9
20260506095017 73 164 6.0 9.0 0.00 0.11 0.00 95 1008.9
20260506094017 73 164 6.0 10.0 0.00 0.11 0.00 94 1008.8
20260506093018 74 164 5.0 12.0 0.00 0.11 0.00 93 1008.8
20260506092018 74 172 8.0 13.0 0.00 0.11 0.00 93 1008.7
20260506091018 74 163 6.0 9.0 0.00 0.11 0.00 93 1008.7
20260506090018 74 165 6.0 11.0 0.00 0.11 0.00 92 1008.5
20260506085018 74 162 6.0 11.0 0.00 0.11 0.00 92 1008.5
20260506084019 74 168 7.0 13.0 0.00 0.11 0.00 92 1008.4
20260506083056 74 170 8.0 16.0 0.00 0.11 0.00 93 1008.4
20260506082016 74 155 8.0 16.0 0.00 0.11 0.00 93 1008.4
20260506081016 74 161 7.0 12.0 0.00 0.11 0.00 93 1008.6
20260506073017 75 163 7.0 12.0 0.00 0.11 0.00 91 1009.0
20260506072017 75 165 4.0 9.0 0.00 0.11 0.00 90 1009.1
20260506071037 75 156 5.0 9.0 0.00 0.11 0.00 90 1009.2
20260506062038 75 161 8.0 12.0 0.00 0.11 0.00 89 1009.2
20260506061018 76 165 9.0 13.0 0.00 0.11 0.00 88 1009.1
20260506051016 76 157 8.0 11.0 0.00 0.11 0.00 87 1008.9
20260506050331 76 164 8.0 13.0 0.00 0.11 0.00 87 1008.9
20260506045016 76 163 7.0 13.0 0.00 0.11 0.11 88 1009.0
20260506044017 76 162 5.0 11.0 0.00 0.11 0.11 89 1008.9
20260506043037 75 176 2.0 4.0 0.00 0.11 0.11 89 1008.8
20260506042017 75 143 1.0 3.0 0.00 0.11 0.11 88 1008.7
20260506041017 75 145 3.0 6.0 0.00 0.11 0.11 87 1008.7
20260506040017 75 152 3.0 6.0 0.00 0.11 0.11 86 1008.6
20260506035018 75 93 1.0 3.0 0.00 0.11 0.11 86 1008.5
20260506034017 75 45 0.0 2.0 0.00 0.11 0.11 86 1008.3
20260506033018 75 31 1.0 2.0 0.00 0.11 0.11 85 1008.2
20260506032018 76 54 0.0 1.0 0.00 0.11 0.11 84 1008.1
20260506031018 76 9 1.0 2.0 0.00 0.11 0.11 83 1008.0
20260506030018 76 342 0.0 1.0 0.00 0.11 0.11 83 1007.7
20260506025018 76 15 0.0 1.0 0.00 0.11 0.11 83 1007.7
20260506024018 77 333 0.0 2.0 0.00 0.11 0.11 82 1007.5
20260506023016 77 10 1.0 3.0 0.00 0.11 0.11 82 1007.4
20260506022017 78 8 0.0 2.0 0.00 0.11 0.11 81 1007.2
20260506021017 78 185 1.0 3.0 0.00 0.11 0.11 79 1007.1
20260506020016 79 53 0.0 1.0 0.00 0.11 0.11 78 1006.9
20260506015016 79 199 2.0 3.0 0.00 0.11 0.11 77 1006.9
20260506014017 80 205 2.0 3.0 0.00 0.11 0.11 76 1006.6
20260506013039 81 145 1.0 4.0 0.00 0.11 0.11 74 1006.5
20260506012018 81 158 4.0 7.0 0.00 0.11 0.11 73 1006.3
20260506011037 82 162 2.0 4.0 0.01 0.11 0.11 72 1006.3
20260506010017 82 146 1.0 3.0 0.11 0.11 0.11 70 1006.2
20260506005018 83 166 3.0 5.0 0.11 0.11 0.11 69 1006.2
20260506004038 83 163 2.0 3.0 0.11 0.11 0.11 68 1006.4
20260506003018 84 165 2.0 3.0 0.11 0.11 0.11 67 1006.5
20260506002018 84 122 2.0 5.0 0.11 0.11 0.11 67 1006.5
20260506001018 84 145 3.0 7.0 0.10 0.10 0.10 67 1006.5
20260506000036 84 158 5.0 8.0 0.00 0.00 0.00 66 1006.4
20260505235016 84 178 5.0 9.0 0.00 0.00 0.00 64 1006.4
20260505234016 84 173 4.0 6.0 0.00 0.00 0.00 65 1006.3
20260505233016 85 206 6.0 9.0 0.00 0.01 0.00 65 1006.3